> Flugplatz > 
Stacks Image 3
Aktuelle METAR Daten (Memmingen, Friedrichshafen, Laupheim):
2018/01/19 06:50 EDJA 191850Z 22008KT 180V240 9999 BKN052 01/00 Q1011
2018/01/19 06:50 EDNY 191850Z 17004KT 9999 FEW021 BKN030 OVC066 03/01 Q1012
2018/01/19 06:20 ETHL 191820Z 23012KT 9999 BKN040 03/M01 Q1011 BLU
Sicherheits- und Servicehinweise:

Bitte achten Sie beim Anflug auf mögliche Fall­schirm­springer auf der Nordseite des Platzes, kontaktieren Sie zur Sicherheit den Flugleiter auf Leutkirch INFO 122,875.

Zollabfertigung:
für Ein- und Ausflug bei Voranmeldung mindestens 3 Stunden, nur Personenverkehr – keine Warenabfertigung.

Günstig Tanken:
AvGas 100LL · Jet A1l

Aktuelles:

Winterflugbetrieb:
vom 01.11.2017 bis 14.03.2018.
Täglich 10:00-17:00 (loc)
So+HOL 10:30-17:00 (loc)
Closed 25.12.17 + 01.01.18

Weitere Informationen finden Sie in unserem Newsbereich.

Nutzen Sie unsere Online-Anmeldung zur Zoll- und Passkontrolle.